Location: Kuppenheim
(48.8299°N, 8.2568°E)
Time: 10:24:17
(UTC+00:00)

OE (NEXTSAT) - Pass Details

Date: 20 June 2021
Orbit: 425 x 430 km, 46.0° (Epoch: 01 August)

Event Time Altitude Azimuth Distance (km) Brightness Sun altitude
Exits shadow 01:22:38 19° 244° (WSW) 1,075 5.8 -13.4°
Maximum altitude 01:24:48 51° 175° (S) 546 4.5 -13.2°
Drops below altitude 10° 01:28:09 10° 98° (E) 1,519 7.3 -13.0°
Sets 01:30:18 0° 93° (E) 2,384 8.4 -12.8°
